Fremont, MI

6:40 PM EST on November 21, 2019 (GMT -0500)
Fremont

Weather History for KFFX - July, 2019

Change the Weather History Date:

Thursday, July 11, 2019

  Actual Average (KMKG) Record (KMKG)
Temperature  
Mean Temperature 68 °F -  
Max Temperature 78 °F 80 °F 91 °F (2005)
Min Temperature 59 °F 60 °F 40 °F (1945)
Cooling Degree Days 4    
Growing Degree Days 18 (Base 50)    
Moisture  
Dew Point 56 °F    
Average Humidity 64    
Maximum Humidity 93    
Minimum Humidity 47    
Precipitation  
Precipitation 0.00 in - - ()
Sea Level Pressure  
Sea Level Pressure 29.90 in    
Wind  
Wind Speed 6 mph (NNW)    
Max Wind Speed 18 mph    
Max Gust Speed 25 mph    
Visibility 10 miles    
Events      
Averages and records for this station are not official NWS values.
T = Trace of Precipitation, MM = Missing Value Source: NWS Daily Summary

Daily Weather History Graph

Daily Weather History Graph

Search for Another Location

Airport or City:

Astronomy

Jul. 11, 2019 Rise Set
Actual Time 6:13 AM EDT 9:25 PM EDT
Civil Twilight 5:38 AM EDT 9:59 PM EDT
Nautical Twilight 4:53 AM EDT 10:44 PM EDT
Astronomical Twilight 3:59 AM EDT 11:38 PM EDT
Moon 4:32 PM EDT (7/11) 2:29 AM EDT (7/11)
Length of Visible Light 16h 21m
Length of Day
15h 11m
Waxing Gibbous, 74% of the Moon is Illuminated
Jul 11
Waxing Gibbous
Jul 16
Full
Jul 24
Last Quarter
Jul 31
New
Aug 7
First Quarter

Hourly Weather History & Observations

Time (EDT) Temp. Dew Point Humidity Pressure Visibility Wind Dir Wind Speed Gust Speed Precip Events Conditions
12:00 AM 73.8 °F 59.0 °F 60% 29.85 in 10.0 mi WNW 8.1 mph - N/A   Mostly Cloudy
12:18 AM 73.0 °F 59.2 °F 62% 29.85 in 10.0 mi WNW 6.9 mph - N/A   Mostly Cloudy
12:36 AM 71.8 °F 59.2 °F 64% 29.85 in 10.0 mi WNW 5.8 mph - N/A   Mostly Cloudy
12:55 AM 71.1 °F 59.0 °F 66% 29.86 in 10.0 mi West 5.8 mph - N/A   Scattered Clouds
1:15 AM 70.7 °F 59.0 °F 66% 29.85 in 10.0 mi West 3.5 mph - N/A   Scattered Clouds
1:16 AM 70.7 °F 59.0 °F 66% 29.85 in 10.0 mi West 3.5 mph - N/A   Scattered Clouds
1:39 AM 69.8 °F 58.6 °F 68% 29.85 in 10.0 mi Calm Calm - N/A   Scattered Clouds
1:57 AM 69.3 °F 58.6 °F 69% 29.85 in 10.0 mi Calm Calm - N/A   Scattered Clouds
2:15 AM 68.2 °F 59.0 °F 72% 29.85 in 10.0 mi Calm Calm - N/A   Mostly Cloudy
2:35 AM 67.1 °F 59.0 °F 75% 29.85 in 10.0 mi West 4.6 mph - N/A   Scattered Clouds
2:36 AM 67.1 °F 59.0 °F 75% 29.85 in 10.0 mi West 4.6 mph - N/A   Scattered Clouds
2:55 AM 67.5 °F 58.5 °F 73% 29.85 in 10.0 mi West 4.6 mph - N/A   Clear
2:59 AM 67.3 °F 58.5 °F 73% 29.85 in 10.0 mi West 3.5 mph - N/A   Clear
3:18 AM 66.7 °F 58.5 °F 75% 29.85 in 10.0 mi West 3.5 mph - N/A   Clear
3:36 AM 65.7 °F 58.5 °F 78% 29.85 in 10.0 mi WNW 3.5 mph - N/A   Clear
3:55 AM 65.5 °F 58.3 °F 77% 29.85 in 10.0 mi NNW 3.5 mph - N/A   Clear
4:15 AM 65.8 °F 58.6 °F 78% 29.85 in 10.0 mi Calm Calm - N/A   Clear
4:39 AM 64.4 °F 58.5 °F 81% 29.86 in 10.0 mi Calm Calm - N/A   Clear
4:57 AM 64.4 °F 58.5 °F 81% 29.86 in 10.0 mi Calm Calm - N/A   Clear
5:15 AM 63.9 °F 58.3 °F 82% 29.86 in 10.0 mi SSW 3.5 mph - N/A   Clear
5:35 AM 62.8 °F 59.0 °F 87% 29.85 in 10.0 mi Calm Calm - N/A   Clear
5:36 AM 62.8 °F 58.8 °F 87% 29.85 in 10.0 mi Calm Calm - N/A   Clear
5:55 AM 61.9 °F 58.6 °F 89% 29.85 in 10.0 mi Calm Calm - N/A   Clear
6:00 AM 62.6 °F 59.0 °F 88% 29.86 in 10.0 mi Calm Calm - N/A   Clear
6:18 AM 62.2 °F 59.4 °F 90% 29.86 in 10.0 mi Calm Calm - N/A   Clear
6:36 AM 61.9 °F 59.7 °F 93% 29.86 in 10.0 mi Calm Calm - N/A   Clear
6:55 AM 62.8 °F 59.5 °F 89% 29.87 in 10.0 mi Calm Calm - N/A   Clear
7:15 AM 63.5 °F 61.0 °F 91% 29.87 in 10.0 mi Calm Calm - N/A   Clear
7:39 AM 66.9 °F 60.6 °F 80% 29.87 in 10.0 mi West 3.5 mph - N/A   Clear
7:57 AM 68.0 °F 60.3 °F 76% 29.87 in 10.0 mi Calm Calm - N/A   Clear
8:15 AM 69.3 °F 60.6 °F 74% 29.87 in 10.0 mi NW 4.6 mph - N/A   Clear
8:35 AM 70.7 °F 61.0 °F 71% 29.88 in 10.0 mi NNW 4.6 mph - N/A   Clear
8:55 AM 71.6 °F 60.8 °F 69% 29.88 in 10.0 mi NNW 4.6 mph - N/A   Clear
9:36 AM 74.5 °F 60.1 °F 61% 29.89 in 10.0 mi North 6.9 mph - N/A   Clear
9:55 AM 75.0 °F 60.1 °F 60% 29.89 in 10.0 mi NNW 10.4 mph - N/A   Clear
10:15 AM 74.8 °F 60.3 °F 60% 29.89 in 10.0 mi NNW 6.9 mph 16.1 mph N/A   Scattered Clouds
10:39 AM 75.6 °F 61.0 °F 60% 29.90 in 10.0 mi NNW 8.1 mph - N/A   Mostly Cloudy
10:57 AM 75.4 °F 61.0 °F 61% 29.90 in 10.0 mi NNW 9.2 mph - N/A   Overcast
11:15 AM 76.3 °F 60.8 °F 59% 29.89 in 10.0 mi NW 6.9 mph - N/A   Mostly Cloudy
11:16 AM 76.5 °F 60.8 °F 58% 29.90 in 10.0 mi WNW 8.1 mph - N/A   Mostly Cloudy
11:35 AM 78.1 °F 60.6 °F 55% 29.90 in 10.0 mi NW 10.4 mph - N/A   Mostly Cloudy
11:55 AM 77.2 °F 59.7 °F 55% 29.90 in 10.0 mi WNW 10.4 mph - N/A   Overcast
12:18 PM 77.7 °F 59.2 °F 53% 29.90 in 10.0 mi NW 8.1 mph 16.1 mph N/A   Scattered Clouds
12:36 PM 78.1 °F 58.5 °F 51% 29.90 in 10.0 mi NW 8.1 mph - N/A   Scattered Clouds
12:55 PM 78.3 °F 57.7 °F 49% 29.90 in 10.0 mi WNW 12.7 mph 17.3 mph N/A   Scattered Clouds
1:15 PM 78.6 °F 57.0 °F 47% 29.90 in 10.0 mi NNW 12.7 mph 17.3 mph N/A   Scattered Clouds
1:39 PM 76.6 °F 57.6 °F 52% 29.91 in 10.0 mi NNW 13.8 mph 19.6 mph N/A   Mostly Cloudy
1:57 PM 77.0 °F 55.9 °F 48% 29.91 in 10.0 mi NW 9.2 mph 19.6 mph N/A   Mostly Cloudy
2:15 PM 76.5 °F 55.9 °F 49% 29.91 in 10.0 mi WNW 10.4 mph 19.6 mph N/A   Scattered Clouds
2:16 PM 76.5 °F 55.9 °F 49% 29.91 in 10.0 mi NW 8.1 mph 19.6 mph N/A   Scattered Clouds
2:35 PM 76.6 °F 56.5 °F 50% 29.91 in 10.0 mi NNW 12.7 mph 19.6 mph N/A   Mostly Cloudy
2:36 PM 76.6 °F 56.7 °F 50% 29.91 in 10.0 mi North 15.0 mph 19.6 mph N/A   Mostly Cloudy
2:55 PM 74.7 °F 56.3 °F 53% 29.92 in 10.0 mi North 17.3 mph 24.2 mph N/A   Mostly Cloudy
3:00 PM 74.7 °F 56.5 °F 53% 29.92 in 10.0 mi North 15.0 mph 24.2 mph N/A   Mostly Cloudy
3:18 PM 72.3 °F 55.6 °F 56% 29.93 in 10.0 mi North 18.4 mph - N/A   Overcast
3:36 PM 72.3 °F 54.5 °F 53% 29.94 in 10.0 mi NNW 15.0 mph 21.9 mph N/A   Overcast
3:55 PM 72.3 °F 53.8 °F 52% 29.94 in 10.0 mi North 17.3 mph 23.0 mph N/A   Mostly Cloudy
4:15 PM 72.0 °F 53.4 °F 52% 29.94 in 10.0 mi North 16.1 mph 20.7 mph N/A   Mostly Cloudy
4:16 PM 72.0 °F 53.4 °F 52% 29.94 in 10.0 mi North 12.7 mph 20.7 mph N/A   Overcast
4:39 PM 72.3 °F 53.2 °F 51% 29.94 in 10.0 mi NNW 15.0 mph 25.3 mph N/A   Overcast
4:57 PM 72.3 °F 53.2 °F 51% 29.94 in 10.0 mi NNW 15.0 mph 21.9 mph N/A   Overcast
5:15 PM 71.8 °F 53.1 °F 52% 29.94 in 10.0 mi North 13.8 mph 24.2 mph N/A   Mostly Cloudy
5:35 PM 70.9 °F 53.4 °F 54% 29.93 in 10.0 mi North 16.1 mph 20.7 mph N/A   Scattered Clouds
5:36 PM 71.1 °F 53.4 °F 54% 29.93 in 10.0 mi North 16.1 mph 20.7 mph N/A   Scattered Clouds
5:55 PM 71.6 °F 53.4 °F 53% 29.92 in 10.0 mi NNW 16.1 mph 23.0 mph N/A   Scattered Clouds
6:00 PM 71.4 °F 53.6 °F 53% 29.92 in 10.0 mi North 13.8 mph 21.9 mph N/A   Scattered Clouds
6:18 PM 71.8 °F 53.8 °F 53% 29.92 in 10.0 mi North 16.1 mph 20.7 mph N/A   Scattered Clouds
6:36 PM 71.6 °F 54.0 °F 54% 29.93 in 10.0 mi North 12.7 mph 18.4 mph N/A   Scattered Clouds
6:55 PM 71.4 °F 53.1 °F 52% 29.93 in 10.0 mi North 12.7 mph 21.9 mph N/A   Clear
7:15 PM 72.0 °F 51.1 °F 48% 29.93 in 10.0 mi North 12.7 mph 21.9 mph N/A   Clear
7:39 PM 71.6 °F 52.7 °F 51% 29.93 in 10.0 mi NNE 8.1 mph - N/A   Clear
7:57 PM 70.7 °F 51.8 °F 51% 29.93 in 10.0 mi North 10.4 mph - N/A   Clear
8:15 PM 70.0 °F 52.2 °F 53% 29.94 in 10.0 mi North 8.1 mph - N/A   Clear
8:16 PM 70.0 °F 52.2 °F 53% 29.94 in 10.0 mi North 8.1 mph - N/A   Clear
8:35 PM 69.1 °F 51.8 °F 54% 29.94 in 10.0 mi North 8.1 mph - N/A   Clear
8:55 PM 67.8 °F 51.6 °F 56% 29.95 in 10.0 mi NNE 5.8 mph - N/A   Clear
9:18 PM 66.2 °F 50.7 °F 57% 29.95 in 10.0 mi North 5.8 mph - N/A   Clear
9:36 PM 64.8 °F 50.0 °F 59% 29.95 in 10.0 mi NNE 3.5 mph - N/A   Clear
9:55 PM 63.5 °F 51.3 °F 64% 29.96 in 10.0 mi NNE 3.5 mph - N/A   Clear
9:56 PM 63.5 °F 51.3 °F 64% 29.96 in 10.0 mi NNE 3.5 mph - N/A   Clear
10:15 PM 62.8 °F 51.6 °F 67% 29.96 in 10.0 mi Calm Calm - N/A   Clear
10:16 PM 62.8 °F 51.6 °F 67% 29.96 in 10.0 mi Calm Calm - N/A   Clear
10:39 PM 61.7 °F 51.1 °F 68% 29.97 in 10.0 mi NNE 3.5 mph - N/A   Clear
10:57 PM 61.2 °F 50.9 °F 69% 29.97 in 10.0 mi North 3.5 mph - N/A   Clear
11:15 PM 61.0 °F 50.5 °F 68% 29.97 in 10.0 mi NNE 4.6 mph - N/A   Clear
11:35 PM 60.3 °F 50.9 °F 71% 29.96 in 10.0 mi NNE 4.6 mph - N/A   Clear
11:55 PM 59.5 °F 50.9 °F 73% 29.96 in 10.0 mi North 3.5 mph - N/A   Clear
11:59 PM 59.4 °F 50.9 °F 74% 29.95 in 10.0 mi Calm Calm - N/A   Clear